Retour au catalogue

CZ-4B DEB

ActifSSO
NORAD 38309·DEBRIS·🇨🇳 China

Lancé Dec 22, 2011 depuis Taiyuan Satellite Launch Center

Loading…

Prochains Passages (prochaines 24 heures)

TLE

FraisSource: Space-Track

Époque: Sep 14, 2026, 07:23 UTC

1 38309U 11079C   26257.30805765  .00002166  00000-0  40589-3 0  9991
2 38309  97.9595 277.2233 0094147 352.3836  70.4449 14.62974827773612

Suivez CZ-4B DEB en temps réel avec AllMySat

Download on the App Store